Location: Camaret
(48.2753°N, 4.5961°W)
Time: 04:35:06
(UTC+00:00)

ERBS - Pass Details

Date: 29 October 2020
Orbit: 406 x 422 km, 57.0° (Epoch: 01 December)

Event Time Altitude Azimuth Distance (km) Brightness Sun altitude
Rises 18:15:31 0° 299° (WNW) 2,369 7.0 -12.5°
Reaches altitude 10° 18:18:02 10° 318° (NW) 1,508 5.5 -12.9°
Maximum altitude 18:20:32 19° 6° (N) 1,080 4.2 -13.3°
Enters shadow 18:21:53 15° 37° (NE) 1,223 4.2 -13.5°
